1520766000.05,3136,11.31,72880.3,8.23,-19.99,-20.15,0,*4D
1520766001.25,3137,11.31,72882.0,8.23,-19.99,-19.99,0,*42
1520766002.51,3138,11.31,72880.8,8.25,-20.15,-20.15,0,*4B
1520766003.75,3139,11.31,72874.8,8.25,-20.15,-20.25,0,*49
1520766004.94,3140,11.31,72874.3,8.27,-20.63,-20.63,0,*46
1520766006.14,3141,11.31,72872.0,8.27,-20.25,-20.39,0,*4A
1520766007.38,3142,11.31,72868.5,8.25,-19.91,-19.81,0,*47
1520766008.64,3143,11.31,72872.8,8.29,-20.19,-20.35,0,*45
1520766009.83,3144,11.31,72870.5,8.27,-21.17,-21.43,0,*43
1520766011.08,3145,11.38,72874.5,8.25,-21.03,-21.13,0,*40
1520766012.27,3146,11.38,72874.8,8.27,-20.69,-20.69,0,*40
1520766013.51,3147,11.31,72872.8,8.27,-20.99,-21.27,0,*45
1520766014.7,3148,11.31,72874.3,8.27,-22.03,-22.27,0,*48
1520766015.94,3149,11.38,72882.3,8.25,-22.07,-22.17,0,*4C
1520766017.21,3150,11.31,72876.5,8.25,-22.17,-22.31,0,*41
1520766018.44,3151,11.31,72878.8,8.23,-22.77,-22.97,0,*4C
1520766019.68,3152,11.31,72874.0,8.21,-22.47,-22.53,0,*46
1520766020.88,3153,11.31,72878.0,8.19,-21.43,-21.43,0,*49
1520766022.1,3154,11.31,72882.0,8.19,-21.27,-21.43,0,*4C
1520766023.34,3155,11.31,72882.8,8.17,-21.57,-21.63,0,*46
1520766024.6,3156,11.31,72884.5,8.19,-21.23,-21.23,0,*4C
1520766025.84,3157,11.31,72882.0,8.17,-21.33,-21.47,0,*40
1520766027.11,3158,11.31,72882.0,8.17,-21.23,-21.33,0,*4D
1520766028.34,3159,11.31,72882.3,8.17,-20.93,-20.93,0,*4D
1520766029.56,3160,11.31,72880.8,8.17,-20.63,-20.63,0,*47
1520766030.83,3161,11.31,72880.3,8.17,-20.35,-20.49,0,*4D
1520766032.03,3162,11.31,72880.5,8.19,-20.69,-20.69,0,*4B
1520766033.26,3163,11.31,72882.3,8.21,-20.29,-20.35,0,*4C
1520766034.52,3164,11.31,72880.5,8.21,-19.81,-19.81,0,*46
1520766035.75,3165,11.31,72880.8,8.23,-19.85,-19.81,0,*41
1520766036.95,3166,11.31,72884.3,8.23,-19.95,-19.95,0,*46
1520766038.18,3167,11.31,72882.3,8.23,-20.35,-20.35,0,*47
1520766039.46,3168,11.31,72882.8,8.25,-19.65,-19.65,0,*4E
1520766040.67,3169,11.31,72882.3,8.25,-19.51,-19.51,0,*4F
1520766041.95,3170,11.31,72882.0,8.25,-19.31,-19.31,0,*47
1520766043.22,3171,11.38,72886.3,8.29,-18.93,-18.93,0,*4A
1520766044.44,3172,11.31,72884.0,8.29,-18.65,-18.69,0,*45
1520766045.63,3173,11.31,72882.3,8.31,-18.65,-18.73,0,*46
1520766046.87,3174,11.31,72880.0,8.31,-18.93,-18.93,0,*46
1520766048.14,3175,11.38,72884.0,8.33,-19.85,-19.85,0,*45
1520766049.32,3176,11.38,72884.3,8.35,-19.07,-19.07,0,*40
1520766050.55,3177,11.31,72878.0,8.33,-19.13,-19.37,0,*41
1520766051.74,3178,11.31,72874.5,8.35,-20.25,-20.29,0,*42
1520766052.95,3179,11.38,72880.0,8.35,-20.15,-19.91,0,*49
1520766054.15,3180,11.31,72874.0,8.35,-19.99,-20.09,0,*4A
1520766055.4,3181,11.31,72880.3,8.39,-19.61,-19.57,0,*41
1520766056.62,3182,11.31,72880.0,8.39,-19.57,-19.47,0,*46
1520766057.84,3183,11.38,72880.0,8.41,-18.83,-18.83,0,*49
1520766059.06,3184,11.31,72878.3,8.41,-18.69,-18.65,0,*42
1520766060.27,3185,11.31,72878.0,8.41,-18.99,-18.99,0,*4F
1520766061.55,3186,11.38,72882.0,8.47,-19.23,-19.23,0,*4A
1520766062.77,3187,11.31,72876.0,8.47,-20.25,-20.29,0,*47
1520766063.99,3188,11.38,72882.0,8.47,-20.25,-20.29,0,*48
1520766065.19,3189,11.38,72880.3,8.45,-20.39,-20.29,0,*46
1520766066.42,3190,11.31,72880.0,8.47,-20.69,-20.59,0,*4E
1520766067.66,3191,11.38,72884.8,8.49,-20.35,-20.35,0,*42
1520766068.91,3192,11.38,72884.3,8.47,-20.53,-20.69,0,*46
1520766070.13,3193,11.31,72882.3,8.47,-20.69,-20.73,0,*45
1520766071.4,3194,11.38,72884.8,8.47,-19.81,-19.81,0,*49
1520766072.65,3195,11.31,72886.0,8.47,-19.37,-19.31,0,*4E
1520766073.84,3196,11.31,72886.3,8.49,-19.47,-19.47,0,*45
1520766075.11,3197,11.31,72882.5,8.51,-19.23,-19.23,0,*4D
1520766076.34,3198,11.38,72882.8,8.51,-18.79,-18.73,0,*48
1520766077.53,3199,11.31,72882.0,8.53,-18.99,-19.07,0,*47
1520766078.75,3200,11.31,72878.3,8.53,-19.65,-19.71,0,*47
1520766080.03,3201,11.31,72876.5,8.55,-19.65,-19.61,0,*41
1520766081.23,3202,11.31,72876.8,8.53,-19.91,-19.91,0,*40
1520766082.5,3203,11.31,72878.8,8.55,-19.31,-19.31,0,*47
1520766083.75,3204,11.31,72878.8,8.55,-21.03,-21.17,0,*45
1520766085.0,3205,11.38,72876.0,8.53,-20.83,-20.83,0,*47
1520766086.22,3206,11.31,72874.3,8.53,-20.99,-21.09,0,*4C
1520766087.45,3207,11.31,72868.0,8.53,-21.39,-21.27,0,*4A
1520766088.65,3208,11.38,72872.3,8.53,-21.13,-21.13,0,*4A
1520766089.92,3209,11.31,72872.0,8.51,-21.53,-21.53,0,*49
1520766091.15,3210,11.31,72876.5,8.51,-20.59,-20.63,0,*48
1520766092.37,3211,11.31,72874.3,8.49,-20.69,-20.83,0,*4D
1520766093.6,3212,11.31,72872.3,8.49,-21.73,-21.83,0,*45
1520766094.85,3213,11.31,72872.3,8.49,-21.03,-21.03,0,*4B
1520766096.09,3214,11.31,72874.3,8.49,-20.79,-21.03,0,*40
1520766097.3,3215,11.38,72872.8,8.49,-20.39,-20.39,0,*4D
1520766098.5,3216,11.31,72868.5,8.49,-20.25,-20.25,0,*4E
1520766099.76,3217,11.31,72872.3,8.51,-20.15,-20.19,0,*4A
1520766100.99,3218,11.38,72872.0,8.49,-19.57,-19.47,0,*41
1520766102.24,3219,11.31,72874.8,8.51,-20.99,-21.13,0,*4B
1520766103.51,3220,11.38,72876.5,8.51,-20.83,-20.99,0,*49
1520766104.7,3221,11.38,72876.8,8.49,-21.43,-21.47,0,*4E
1520766105.9,3222,11.31,72870.5,8.49,-21.13,-21.17,0,*4D
1520766107.15,3223,11.31,72872.8,8.49,-19.57,-19.41,0,*4F
1520766108.38,3224,11.38,72874.8,8.51,-20.63,-20.73,0,*47
1520766109.6,3225,11.38,72878.0,8.51,-20.63,-20.73,0,*46
1520766110.85,3226,11.31,72870.5,8.49,-20.19,-20.19,0,*4D
1520766112.07,3227,11.31,72868.8,8.53,-20.63,-20.83,0,*49
1520766113.33,3228,11.31,72866.8,8.51,-21.13,-21.23,0,*49
1520766114.54,3229,11.31,72864.0,8.51,-21.39,-21.43,0,*46
1520766115.79,3230,11.38,72868.0,8.49,-21.57,-21.83,0,*43
1520766116.98,3231,11.38,72868.5,8.49,-21.47,-21.73,0,*4C
1520766118.2,3232,11.31,72866.5,8.45,-21.47,-21.53,0,*41
1520766119.43,3233,11.38,72868.5,8.45,-22.73,-22.87,0,*4E
1520766120.63,3234,11.38,72866.8,8.45,-22.11,-22.27,0,*47
1520766121.89,3235,11.31,72870.0,8.41,-21.97,-21.97,0,*47
1520766123.08,3236,11.38,72872.5,8.39,-21.93,-22.11,0,*42
1520766124.27,3237,11.38,72864.8,8.39,-21.93,-22.11,0,*43
1520766125.49,3238,11.31,72866.8,8.39,-23.19,-23.39,0,*47
1520766126.71,3239,11.31,72868.0,8.33,-23.59,-23.59,0,*4E
1520766127.95,3240,11.38,72874.0,8.33,-22.17,-22.37,0,*42
1520766129.19,3241,11.38,72868.5,8.33,-21.83,-22.07,0,*4E
1520766130.43,3242,11.31,72868.8,8.29,-22.21,-22.41,0,*4F
1520766131.67,3243,11.38,72868.5,8.31,-21.87,-21.97,0,*40
1520766132.91,3244,11.38,72870.5,8.31,-21.83,-21.97,0,*43
1520766134.12,3245,11.31,72866.3,8.29,-22.07,-22.37,0,*4D
1520766135.37,3246,11.38,72870.0,8.31,-21.53,-21.53,0,*44
1520766136.61,3247,11.31,72864.8,8.29,-22.21,-22.37,0,*4B
1520766137.86,3248,11.38,72870.3,8.25,-21.77,-21.83,0,*44
1520766139.05,3249,11.31,72874.3,8.27,-21.93,-22.07,0,*42
1520766140.29,3250,11.31,72870.3,8.25,-23.59,-23.99,0,*4A
1520766141.56,3251,11.38,72872.8,8.25,-23.03,-23.19,0,*4C
1520766142.78,3252,11.31,72870.8,8.21,-22.37,-22.53,0,*42
1520766144.02,3253,11.38,72868.8,8.21,-21.39,-21.53,0,*4D
1520766145.27,3254,11.38,72868.3,8.21,-21.09,-21.23,0,*4E
1520766146.48,3255,11.38,72872.8,8.23,-20.35,-20.43,0,*44
1520766147.7,3256,11.38,72868.5,8.21,-20.93,-20.93,0,*44
1520766148.94,3257,11.38,72872.3,8.23,-20.19,-20.19,0,*47
1520766150.13,3258,11.38,72870.3,8.23,-20.73,-20.73,0,*48
1520766151.38,3259,11.38,72872.5,8.25,-19.31,-19.37,0,*49
1520766152.65,3260,11.38,72872.0,8.29,-20.53,-20.53,0,*49
1520766153.84,3261,11.38,72874.5,8.27,-20.69,-20.69,0,*46
1520766155.03,3262,11.31,72874.0,8.27,-19.75,-19.71,0,*41
1520766156.27,3263,11.38,72876.0,8.29,-20.99,-21.13,0,*49
1520766157.5,3264,11.38,72878.0,8.29,-20.25,-20.25,0,*4D
1520766158.77,3265,11.38,72872.8,8.29,-20.49,-20.53,0,*47
1520766160.01,3266,11.38,72874.0,8.31,-19.65,-19.65,0,*46
1520766161.2,3267,11.38,72874.8,8.31,-20.05,-19.99,0,*48
1520766162.47,3268,11.38,72870.5,8.33,-19.41,-19.41,0,*4A
1520766163.71,3269,11.31,72868.5,8.33,-20.19,-20.43,0,*44
1520766164.96,3270,11.31,72866.5,8.33,-20.49,-20.59,0,*42
1520766166.19,3271,11.38,72870.5,8.33,-19.81,-19.71,0,*4D
1520766167.39,3272,11.38,72868.3,8.35,-19.51,-19.47,0,*40
1520766168.61,3273,11.38,72870.5,8.35,-20.43,-20.53,0,*47
1520766169.8,3274,11.31,72868.5,8.35,-20.29,-20.43,0,*4D
1520766171.0,3275,11.31,72870.0,8.39,-20.63,-20.63,0,*4C
1520766172.25,3276,11.38,72870.0,8.41,-20.19,-20.25,0,*4F
1520766173.49,3277,11.38,72872.5,8.39,-20.49,-20.49,0,*4E
1520766174.68,3278,11.38,72874.5,8.39,-19.95,-20.09,0,*4E
1520766175.92,3279,11.31,72874.8,8.39,-20.79,-20.79,0,*40
1520766177.15,3280,11.38,72872.8,8.41,-20.39,-20.39,0,*49
1520766178.4,3281,11.38,72872.5,8.39,-20.53,-20.49,0,*4C
1520766179.61,3282,11.38,72874.0,8.39,-20.19,-20.25,0,*4B
1520766180.83,3283,11.38,72876.5,8.41,-21.93,-22.11,0,*43
1520766182.03,3284,11.38,72876.5,8.45,-20.29,-20.25,0,*45
1520766183.27,3285,11.38,72874.5,8.39,-20.49,-20.53,0,*48
1520766184.52,3286,11.38,72874.3,8.41,-20.83,-20.93,0,*4E
1520766185.77,3287,11.38,72876.0,8.39,-20.53,-20.53,0,*41
1520766187.01,3288,11.38,72870.0,8.41,-20.35,-20.39,0,*4D
1520766188.28,3289,11.38,72868.3,8.41,-20.79,-20.99,0,*4E
1520766189.5,3290,11.31,72870.5,8.39,-21.03,-21.17,0,*42
1520766190.75,3291,11.38,72870.5,8.39,-21.27,-21.27,0,*46
1520766191.95,3292,11.38,72868.3,8.39,-21.43,-21.57,0,*40
1520766193.17,3293,11.38,72866.8,8.39,-21.17,-21.27,0,*47
1520766194.37,3294,11.38,72864.8,8.39,-21.73,-21.93,0,*4D
1520766195.58,3295,11.31,72862.3,8.35,-22.73,-22.87,0,*45
1520766196.81,3296,11.38,72866.0,8.33,-22.93,-23.09,0,*49
1520766198.03,3297,11.38,72864.5,8.31,-22.77,-22.83,0,*43
1520766199.24,3298,11.38,72862.8,8.29,-22.03,-22.11,0,*4D
1520766200.46,3299,11.38,72866.8,8.29,-21.73,-21.77,0,*4B
1520766201.71,3300,11.38,72864.5,8.29,-21.77,-21.87,0,*41
1520766202.96,3301,11.38,72864.5,8.29,-22.57,-22.73,0,*49
1520766204.2,3302,11.38,72866.5,8.27,-23.49,-23.65,0,*4C
1520766205.46,3303,11.38,72866.8,8.25,-23.29,-23.53,0,*4C
1520766206.7,3304,11.31,72866.0,8.25,-22.73,-22.87,0,*4D
1520766207.92,3305,11.38,72872.8,8.23,-22.11,-22.17,0,*47
1520766209.17,3306,11.38,72870.3,8.21,-22.47,-22.63,0,*46
1520766210.39,3307,11.38,72870.3,8.21,-22.93,-22.97,0,*45
1520766211.58,3308,11.38,72874.5,8.19,-22.27,-22.41,0,*45
1520766212.82,3309,11.38,72876.5,8.21,-21.39,-21.57,0,*47
1520766214.01,3310,11.38,72878.0,8.19,-21.63,-21.63,0,*4C
1520766215.21,3311,11.38,72874.8,8.19,-21.93,-21.93,0,*4D
1520766216.48,3312,11.38,72874.0,8.17,-21.57,-21.57,0,*40
1520766217.7,3313,11.38,72874.0,8.17,-21.73,-21.63,0,*40
1520766218.89,3314,11.38,72870.8,8.19,-21.73,-21.73,0,*48
1520766220.11,3315,11.38,72870.3,8.17,-21.73,-21.63,0,*46
1520766221.33,3316,11.38,72868.0,8.19,-20.99,-21.13,0,*49
1520766222.58,3317,11.38,72868.3,8.23,-22.17,-22.17,0,*42
1520766223.83,3318,11.38,72868.3,8.17,-21.87,-22.07,0,*41
1520766225.05,3319,11.38,72868.8,8.17,-22.27,-22.53,0,*48
1520766226.3,3320,11.38,72864.8,8.15,-21.83,-21.83,0,*43
1520766227.54,3321,11.38,72866.0,8.15,-20.83,-21.03,0,*4B
1520766228.78,3322,11.38,72866.5,8.17,-22.21,-22.41,0,*45
1520766230.03,3323,11.31,72860.3,8.15,-21.67,-21.67,0,*40
1520766231.23,3324,11.38,72860.0,8.15,-22.07,-22.21,0,*43
1520766232.48,3325,11.38,72862.3,8.11,-22.11,-22.17,0,*44
1520766233.69,3326,11.38,72866.0,8.15,-22.07,-22.17,0,*44
1520766234.96,3327,11.38,72866.0,8.11,-21.83,-21.83,0,*40
1520766236.16,3328,11.38,72866.5,8.15,-22.93,-23.09,0,*49
1520766237.38,3329,11.38,72864.5,8.11,-22.83,-22.93,0,*4F
1520766238.6,3330,11.38,72866.8,8.07,-22.53,-22.67,0,*46
1520766239.82,3331,11.38,72866.0,8.07,-22.67,-22.97,0,*4F
1520766241.04,3332,11.38,72868.5,8.07,-22.53,-22.83,0,*4E
1520766242.23,3333,11.38,72868.5,8.05,-22.11,-22.11,0,*40
1520766243.45,3334,11.38,72868.0,8.05,-22.57,-22.77,0,*45
1520766244.68,3335,11.38,72866.3,8.05,-22.47,-22.63,0,*40
1520766245.92,3336,11.38,72868.0,8.03,-22.11,-22.21,0,*40
1520766247.18,3337,11.38,72868.8,8.03,-22.77,-22.93,0,*48
1520766248.44,3338,11.38,72866.3,8.03,-22.73,-22.73,0,*4D
1520766249.7,3339,11.38,72870.8,8.01,-22.17,-22.17,0,*4E
1520766250.97,3340,11.38,72866.5,7.99,-22.21,-22.21,0,*4E
1520766252.18,3341,11.38,72866.3,7.99,-21.39,-21.39,0,*4F
1520766253.39,3342,11.38,72868.8,8.01,-20.89,-20.93,0,*49
1520766254.57,3343,11.38,72872.5,8.01,-20.29,-20.29,0,*43
1520766255.76,3344,11.38,72874.0,8.01,-20.29,-20.29,0,*44
1520766257.03,3345,11.38,72868.5,8.03,-20.35,-20.35,0,*47
1520766258.28,3346,11.38,72870.5,8.03,-20.89,-20.83,0,*4E
1520766259.5,3347,11.38,72870.8,8.05,-20.89,-20.99,0,*42
1520766260.71,3348,11.38,72868.5,8.05,-20.89,-20.89,0,*4C
1520766261.92,3349,11.38,72868.0,8.05,-20.35,-20.39,0,*41
1520766263.17,3350,11.38,72868.3,8.07,-21.13,-21.27,0,*40
1520766264.4,3351,11.38,72870.5,8.07,-21.47,-21.57,0,*47
1520766265.67,3352,11.31,72870.0,8.07,-22.17,-22.21,0,*40
1520766266.89,3353,11.38,72870.0,8.07,-21.43,-21.39,0,*49
1520766268.13,3354,11.38,72874.8,8.05,-20.99,-20.83,0,*4A
1520766269.38,3355,11.38,72872.5,8.05,-21.53,-21.67,0,*47
1520766270.63,3356,11.38,72878.5,8.05,-21.53,-21.53,0,*43
1520766271.82,3357,11.38,72878.5,8.05,-21.63,-21.63,0,*42
1520766273.02,3358,11.38,72882.8,8.05,-20.43,-20.59,0,*46
1520766274.21,3359,11.38,72880.5,8.05,-20.25,-20.09,0,*42
1520766275.45,3360,11.38,72880.8,8.07,-20.35,-20.63,0,*47
1520766276.73,3361,11.38,72878.0,8.07,-21.23,-21.23,0,*45
1520766277.97,3362,11.38,72876.8,8.07,-21.87,-21.77,0,*49
1520766279.18,3363,11.38,72880.0,8.05,-20.89,-20.89,0,*45
1520766280.44,3364,11.38,72882.0,8.07,-20.79,-20.79,0,*40
1520766281.68,3365,11.38,72884.3,8.07,-20.93,-20.99,0,*4B
1520766282.9,3366,11.38,72882.8,8.07,-20.63,-20.69,0,*48
1520766284.15,3367,11.38,72882.0,8.07,-20.53,-20.39,0,*4F
1520766285.38,3368,11.38,72880.0,8.09,-19.81,-19.81,0,*42
1520766286.58,3369,11.38,72882.5,8.09,-19.71,-19.71,0,*43
1520766287.82,3370,11.38,72882.0,8.09,-19.85,-19.85,0,*4B
1520766289.08,3371,11.38,72882.3,8.11,-19.85,-19.81,0,*47
1520766290.31,3372,11.38,72880.8,8.15,-19.81,-19.81,0,*44
1520766291.56,3373,11.38,72878.3,8.15,-20.83,-20.83,0,*45
1520766292.77,3374,11.38,72878.3,8.15,-20.19,-20.05,0,*4F
1520766293.98,3375,11.38,72874.5,8.17,-20.05,-19.91,0,*46
1520766295.26,3376,11.38,72878.0,8.17,-20.53,-20.53,0,*42
1520766296.48,3377,11.38,72876.5,8.17,-20.63,-20.69,0,*49
1520766297.68,3378,11.38,72872.5,8.19,-19.99,-19.91,0,*4A
1520766298.95,3379,11.38,72872.5,8.21,-19.41,-19.27,0,*48
1520766300.16,3380,11.38,72874.5,8.21,-20.09,-19.99,0,*4D
1520766301.38,3381,11.38,72874.0,8.21,-20.73,-20.63,0,*4E
1520766302.58,3382,11.38,72874.3,8.23,-20.89,-20.89,0,*4E
1520766303.79,3383,11.38,72872.0,8.21,-20.09,-19.95,0,*42
1520766305.07,3384,11.38,72872.5,8.21,-20.49,-20.49,0,*4A
1520766306.32,3385,11.38,72868.3,8.21,-20.43,-20.49,0,*41
1520766307.55,3386,11.38,72868.3,8.21,-20.09,-20.15,0,*45
1520766308.82,3387,11.38,72872.8,8.21,-20.19,-20.19,0,*49
1520766310.04,3388,11.38,72866.0,8.21,-20.43,-20.43,0,*46
1520766311.27,3389,11.38,72872.0,8.21,-20.59,-20.59,0,*47
1520766312.46,3390,11.38,72870.5,8.23,-21.39,-21.43,0,*40
1520766313.67,3391,11.38,72870.0,8.21,-21.09,-21.17,0,*41
1520766314.94,3392,11.38,72868.8,8.21,-22.17,-22.21,0,*48
1520766316.22,3393,11.38,72868.5,8.21,-21.27,-21.27,0,*4C
1520766317.43,3394,11.38,72874.0,8.17,-22.03,-22.03,0,*4E
1520766318.68,3395,11.38,72872.8,8.17,-22.21,-22.27,0,*49
1520766319.93,3396,11.38,72876.0,8.17,-21.57,-21.63,0,*4B
1520766321.17,3397,11.38,72878.5,8.17,-20.25,-20.19,0,*42
1520766322.44,3398,11.38,72872.8,8.17,-20.15,-20.19,0,*4E
1520766323.69,3399,11.38,72874.5,8.17,-19.61,-19.71,0,*42
1520766324.92,3400,11.38,72872.0,8.19,-20.39,-20.49,0,*4D
1520766326.14,3401,11.38,72872.5,8.19,-20.19,-20.25,0,*44
1520766327.33,3402,11.38,72876.8,8.19,-19.75,-19.75,0,*48
1520766328.58,3403,11.38,72870.5,8.21,-20.49,-20.59,0,*43
1520766329.83,3404,11.38,72868.8,8.21,-21.17,-21.23,0,*42
1520766331.05,3405,11.38,72872.3,8.21,-21.39,-21.43,0,*49
1520766332.26,3406,11.38,72872.8,8.19,-20.79,-20.69,0,*4D
1520766333.51,3407,11.38,72870.5,8.19,-20.83,-20.79,0,*48
1520766334.73,3408,11.38,72872.0,8.19,-20.35,-20.39,0,*4E
1520766335.93,3409,11.38,72870.3,8.19,-21.47,-21.47,0,*43
1520766337.18,3410,11.38,72878.3,8.19,-21.23,-21.27,0,*4F
1520766338.44,3411,11.38,72872.3,8.19,-21.87,-21.87,0,*4A
1520766339.67,3412,11.38,72872.3,8.19,-21.73,-21.87,0,*42
1520766340.94,3413,11.38,72872.5,8.17,-20.83,-20.83,0,*46
1520766342.19,3414,11.38,72870.8,8.17,-20.49,-20.63,0,*49
1520766343.43,3415,11.38,72876.0,8.21,-22.03,-22.21,0,*45
1520766344.7,3416,11.38,72876.0,8.17,-22.21,-22.21,0,*43
1520766345.97,3417,11.38,72868.3,8.17,-20.83,-20.83,0,*42
1520766347.25,3418,11.38,72868.3,8.17,-20.49,-20.49,0,*4D
1520766348.47,3419,11.38,72870.3,8.19,-19.99,-19.85,0,*4F
1520766349.72,3420,11.38,72866.0,8.19,-19.31,-19.41,0,*4F
1520766351.0,3421,11.38,72868.3,8.21,-19.27,-19.27,0,*42
1520766352.22,3422,11.38,72874.8,8.19,-20.19,-20.25,0,*45
1520766353.44,3423,11.38,72874.5,8.19,-19.91,-19.85,0,*4E
1520766354.68,3424,11.38,72872.8,8.21,-20.15,-20.29,0,*48
1520766355.87,3425,11.38,72876.8,8.23,-21.09,-21.17,0,*4B
1520766357.05,3426,11.38,72878.8,8.23,-19.07,-19.03,0,*43
1520766358.3,3427,11.38,72874.8,8.25,-19.17,-19.31,0,*44
1520766359.49,3428,11.38,72874.0,8.23,-20.09,-20.09,0,*49
1520766360.7,3429,11.38,72878.3,8.25,-20.29,-20.43,0,*42
1520766361.93,3430,11.38,72880.0,8.25,-20.89,-20.89,0,*46
1520766363.14,3431,11.38,72880.3,8.25,-20.29,-20.29,0,*47
1520766364.4,3432,11.38,72874.8,8.25,-20.15,-20.15,0,*44
1520766365.62,3433,11.38,72876.3,8.25,-20.59,-20.69,0,*46
1520766366.81,3434,11.38,72876.3,8.27,-20.25,-20.29,0,*4C
1520766368.06,3435,11.38,72876.3,8.25,-20.59,-20.53,0,*49
1520766369.28,3436,11.38,72872.8,8.29,-20.09,-20.05,0,*40
1520766370.47,3437,11.38,72874.5,8.27,-19.99,-19.99,0,*43
1520766371.67,3438,11.38,72874.0,8.27,-20.63,-20.63,0,*4C
1520766372.89,3439,11.38,72874.5,8.27,-20.63,-20.53,0,*4E
1520766374.11,3440,11.38,72872.5,8.27,-20.39,-20.49,0,*44
1520766375.38,3441,11.38,72874.8,8.25,-20.53,-20.53,0,*40
1520766376.58,3442,11.38,72872.5,8.27,-20.69,-20.63,0,*4B
1520766377.79,3443,11.38,72874.8,8.25,-20.25,-20.09,0,*4C
1520766379.0,3444,11.38,72876.8,8.27,-19.13,-19.17,0,*43
1520766380.24,3445,11.38,72874.0,8.29,-20.05,-20.19,0,*45
1520766381.47,3446,11.38,72872.8,8.33,-20.19,-20.29,0,*43
1520766382.69,3447,11.38,72874.5,8.29,-20.05,-20.05,0,*4A
1520766383.97,3448,11.38,72872.8,8.29,-20.49,-20.49,0,*45
1520766385.18,3449,11.38,72876.3,8.29,-21.73,-21.73,0,*44
1520766386.4,3450,11.38,72878.5,8.29,-21.73,-21.73,0,*4C
1520766387.62,3451,11.38,72876.8,8.27,-20.99,-20.93,0,*49
1520766388.86,3452,11.38,72882.0,8.29,-20.39,-20.35,0,*42
1520766390.09,3453,11.38,72880.3,8.29,-21.13,-21.17,0,*4B
1520766391.36,3454,11.38,72878.5,8.29,-20.99,-20.99,0,*48
1520766392.64,3455,11.38,72882.3,8.29,-20.49,-20.49,0,*49
1520766393.87,3456,11.38,72878.0,8.31,-20.19,-20.35,0,*4D
1520766395.07,3457,11.38,72882.8,8.31,-19.99,-19.95,0,*4E
1520766396.28,3458,11.38,72880.5,8.29,-20.05,-19.91,0,*43
1520766397.48,3459,11.38,72876.0,8.31,-19.95,-19.95,0,*4C
1520766398.74,3460,11.38,72876.8,8.29,-20.19,-20.19,0,*4F
1520766399.94,3461,11.38,72876.3,8.31,-19.71,-19.71,0,*47
1520766401.19,3462,11.38,72870.0,8.33,-20.43,-20.49,0,*4C
1520766402.45,3463,11.38,72870.5,8.33,-21.57,-21.57,0,*47
1520766403.7,3464,11.38,72868.5,8.31,-21.83,-21.87,0,*46
1520766404.92,3465,11.38,72866.8,8.29,-22.67,-22.57,0,*49
1520766406.13,3466,11.38,72868.5,8.27,-22.67,-22.73,0,*42
1520766407.37,3467,11.38,72866.5,8.25,-23.19,-23.39,0,*46
1520766408.59,3468,11.38,72870.0,8.23,-23.03,-23.09,0,*47
1520766409.78,3469,11.38,72868.8,8.23,-22.03,-22.03,0,*4C
1520766411.04,3470,11.38,72870.0,8.21,-21.83,-21.97,0,*43
1520766412.32,3471,11.38,72868.3,8.21,-21.87,-21.87,0,*47
1520766413.56,3472,11.38,72870.5,8.21,-21.67,-21.73,0,*41
1520766414.77,3473,11.38,72868.5,8.21,-21.39,-21.39,0,*45
1520766416.05,3474,11.38,72874.0,8.21,-21.23,-21.23,0,*42
1520766417.26,3475,11.38,72874.5,8.19,-20.39,-20.39,0,*48
1520766418.47,3476,11.38,72872.5,8.21,-21.09,-21.09,0,*40
1520766419.69,3477,11.38,72874.3,8.21,-20.43,-20.43,0,*41
1520766420.96,3478,11.38,72874.0,8.21,-19.85,-19.85,0,*4E
1520766422.19,3479,11.38,72870.5,8.23,-20.35,-20.35,0,*4D
1520766423.4,3480,11.38,72874.8,8.23,-20.63,-20.79,0,*40
1520766424.6,3481,11.38,72874.0,8.23,-20.93,-20.89,0,*41
1520766425.85,3482,11.38,72872.0,8.23,-21.23,-21.27,0,*4D
1520766427.07,3483,11.38,72868.3,8.23,-21.03,-20.93,0,*40
1520766428.34,3484,11.38,72868.5,8.21,-21.27,-21.27,0,*4D
1520766429.58,3485,11.38,72874.5,8.21,-20.29,-20.19,0,*4F
1520766430.77,3486,11.38,72870.5,8.23,-19.71,-19.71,0,*4D
1520766432.02,3487,11.38,72872.5,8.25,-20.53,-20.59,0,*40
1520766433.26,3488,11.38,72874.5,8.27,-20.49,-20.53,0,*4C
1520766434.51,3489,11.38,72876.0,8.25,-21.17,-21.23,0,*43
1520766435.79,3490,11.38,72874.8,8.25,-21.23,-21.23,0,*4C
1520766437.03,3491,11.38,72876.5,8.25,-21.83,-21.93,0,*4C
1520766438.22,3492,11.38,72872.3,8.23,-21.43,-21.43,0,*48
1520766439.45,3493,11.38,72876.5,8.23,-20.35,-20.35,0,*49
1520766440.66,3494,11.38,72876.0,8.25,-20.09,-20.05,0,*44
1520766441.9,3495,11.38,72872.8,8.23,-20.15,-20.15,0,*4F
1520766443.15,3496,11.38,72876.3,8.25,-20.15,-20.15,0,*4A
1520766444.35,3497,11.38,72872.8,8.27,-20.25,-20.39,0,*44
1520766445.59,3498,11.38,72874.5,8.25,-20.15,-20.05,0,*45
1520766446.85,3499,11.38,72872.3,8.25,-19.81,-19.57,0,*4E
1520766448.11,3500,11.38,72872.5,8.27,-19.57,-19.57,0,*46
1520766449.29,3501,11.38,72874.5,8.27,-20.05,-20.05,0,*47
1520766450.53,3502,11.38,72872.5,8.27,-19.41,-19.27,0,*44
1520766451.78,3503,11.38,72872.0,8.31,-19.65,-19.65,0,*42
1520766453.01,3504,11.38,72872.8,8.31,-19.81,-19.81,0,*45
1520766454.22,3505,11.38,72872.0,8.31,-19.99,-20.15,0,*4A
1520766455.49,3506,11.38,72874.5,8.33,-20.49,-20.49,0,*45
1520766456.76,3507,11.38,72876.3,8.33,-20.79,-20.79,0,*44
1520766458.03,3508,11.38,72870.5,8.33,-21.27,-21.23,0,*4F
1520766459.28,3509,11.38,72870.5,8.33,-20.79,-20.89,0,*45
1520766460.5,3510,11.38,72872.8,8.31,-20.25,-20.19,0,*4F
1520766461.68,3511,11.38,72872.8,8.31,-20.29,-20.29,0,*41
1520766462.92,3512,11.38,72872.8,8.31,-19.41,-19.41,0,*42
1520766464.17,3513,11.38,72874.5,8.33,-18.93,-18.73,0,*4F
1520766465.37,3514,11.38,72872.8,8.35,-19.99,-20.25,0,*4D
1520766466.57,3515,11.38,72876.5,8.35,-20.43,-20.39,0,*4C
1520766467.78,3516,11.38,72874.3,8.35,-20.43,-20.43,0,*42
1520766468.97,3517,11.38,72872.0,8.35,-20.09,-20.09,0,*43
1520766470.18,3518,11.38,72876.8,8.39,-20.93,-20.99,0,*4A
1520766471.39,3519,11.38,72868.3,8.35,-20.39,-20.39,0,*4D
1520766472.59,3520,11.38,72870.5,8.35,-19.99,-19.95,0,*4B
1520766473.81,3521,11.38,72870.8,8.45,-19.75,-19.65,0,*40
1520766475.0,3522,11.38,72868.0,8.39,-19.95,-20.05,0,*4A
1520766476.2,3523,11.38,72872.0,8.39,-21.17,-21.17,0,*48
1520766477.41,3524,11.38,72868.8,8.39,-21.57,-21.63,0,*48
1520766478.63,3525,11.38,72870.8,8.39,-21.13,-21.03,0,*4F
1520766479.84,3526,11.38,72874.0,8.39,-20.19,-20.25,0,*42
1520766481.02,3527,11.38,72870.0,8.39,-20.05,-19.91,0,*4B
1520766482.21,3528,11.38,72870.5,8.39,-20.05,-20.09,0,*4F
1520766483.41,3529,11.38,72870.8,8.39,-19.95,-19.95,0,*42
1520766484.6,3530,11.38,72874.3,8.39,-19.95,-20.05,0,*49
1520766485.82,3531,11.38,72868.8,8.39,-20.93,-20.99,0,*41
1520766487.04,3532,11.38,72870.5,8.39,-20.39,-20.49,0,*4F
1520766488.26,3533,11.38,72868.8,8.39,-20.63,-20.49,0,*41
1520766489.5,3534,11.38,72874.0,8.39,-20.83,-20.83,0,*4E
1520766490.72,3535,11.38,72874.0,8.39,-20.79,-20.69,0,*4E
1520766491.96,3536,11.38,72872.0,8.39,-20.79,-20.83,0,*49
1520766493.2,3537,11.38,72872.5,8.39,-20.83,-20.99,0,*46
1520766494.39,3538,11.38,72874.8,8.39,-20.63,-20.63,0,*42
1520766495.59,3539,11.38,72868.3,8.39,-19.95,-20.05,0,*40
1520766496.79,3540,11.38,72870.5,8.45,-20.25,-20.29,0,*4A
1520766498.0,3541,11.38,72874.0,8.39,-20.69,-20.79,0,*4D
1520766499.24,3542,11.38,72872.5,8.41,-20.39,-20.35,0,*4C
1520766500.49,3543,11.38,72870.0,8.39,-20.49,-20.53,0,*45
1520766501.7,3544,11.38,72870.0,8.41,-21.63,-21.63,0,*46
1520766502.91,3545,11.38,72872.5,8.39,-22.07,-22.21,0,*4C
1520766504.13,3546,11.38,72874.3,8.35,-22.03,-22.17,0,*42
1520766505.38,3547,11.38,72874.0,8.33,-22.37,-22.47,0,*47
1520766506.65,3548,11.38,72872.5,8.33,-21.83,-21.67,0,*45
1520766507.9,3549,11.38,72876.0,8.35,-20.53,-20.53,0,*48